sat.trackr.live / text

‹ back to catalog

STARLINK-36647

NORAD 67824 · 2026-033D

PAYLOAD ACTIVE UNKNOWN

§ Identity

Operator
Country
US
Launch date
2026-02-16
Launch site
AFETR
Launch vehicle
Mass (kg)
RCS (m²)

Purposes: comms

External: N2YO · Heavens-Above · Gunter

§ Orbital elements

Epoch: 2026-09-19T00:36:23.207040Z

Period
94.27 min
Inclination
42.9991°
Eccentricity
0.0000521
Mean motion
15.27589276 rev/d
Perigee alt
482.7 km
Apogee alt
483.4 km
Semi-major
6,861.2 km
B*
4.7642e-4
RAAN
255.0749°
Arg perigee
293.7346°
Mean anomaly
66.3451°
Rev number
3,424

§ Raw data

STARLINK-366471 67824U 26033D   26262.02526860  .00012875  00000+0  47642-3 0  99962 67824  42.9991 255.0749 0000521 293.7346  66.3451 15.27589276 34247

JSON: /api/v1/satellites/67824 · /tle

For live sub-satellite position, see the globe view (requires WebGL).

§ Visibility from observer

Set your observer location to see the next 7 days of passes ≥ 10°. The values pass through the URL so the page stays shareable.

No JS? Fill the form by hand. The geolocation button needs JavaScript.